Hourly Data Report for June 21, 2021

TRENTON A
ONTARIO
Current Station Operator: DND

44°07'08.000" N
77°31'41.000" W
86.30 m
6158875
71621
YTR

Download Data

Hourly Data (June 2021)
Hourly Data Report for June 21, 2021
TIME
LST
Temp Definition
°C
Dew Point Definition
°C
Rel Hum Definition
%
Precip. Amount Definition
mm

Wind Dir Definition
10's deg

Wind Spd Definition
km/h
Visibility Definition
km
Stn Press Definition
kPa
Hmdx Definition


Wind Chill Definition


Weather Definition


00:00 17.0 14.7 86   4 4 24.1 99.35     Mostly Cloudy
01:00 17.1 14.9 87     0 24.1 99.29     Cloudy
02:00 17.0 14.9 87     0 24.1 99.18     Cloudy
03:00 17.8 15.3 85     0 24.1 99.11     Cloudy
04:00 19.7 18.2 91   21 9 24.1 99.12     Rain Showers
05:00 20.7 19.4 92   22 18 11.3 99.06 28   Rain Showers
06:00 20.5 19.3 93   22 21 9.7 99.01 28   Rain Showers, Fog
07:00 20.9 19.3 91   20 15 19.3 98.91 28   Cloudy
08:00 21.9 19.6 87   21 21 24.1 98.90 29   Mostly Cloudy
09:00 22.2 19.0 82   21 15 24.1 98.76 29   Mostly Cloudy
10:00 22.5 19.0 81   22 11 24.1 98.72 29   Mostly Cloudy
11:00 24.7 20.3 77   25 17 24.1 98.68 33   Mostly Cloudy
12:00 26.1 18.9 65   24 34 24.1 98.73 33   Mostly Cloudy
13:00 26.5 17.7 58   24 35 24.1 98.72 32   Mostly Cloudy
14:00 25.8 18.3 63   16 34 24.1 98.68 32   Mostly Cloudy
15:00 25.6 18.8 66   24 35 24.1 98.68 32   Mostly Cloudy
16:00 25.3 19.0 68   24 30 24.1 98.62 32   Mostly Cloudy
17:00 24.8 19.0 70   22 24 24.1 98.60 32   Mostly Cloudy
18:00 25.3 15.9 56   30 34 24.1 98.66 30   Mostly Cloudy
19:00 22.9 13.9 57   31 26 24.1 98.84 26   Mostly Cloudy
20:00 20.3 13.0 63   31 26 24.1 99.01     Mostly Cloudy
21:00 19.1 12.7 66   30 17 24.1 99.19     Mainly Clear
22:00 18.1 12.7 71   30 15 24.1 99.28     Mainly Clear
23:00 16.6 12.0 74   30 18 24.1 99.35     Mostly Cloudy

Notes on Data Quality.

Legend

  • E = Estimated
  • M = Missing
  • NA = Not Available*
  • [empty] = Indicates an unobserved value
Date modified: